Regional Weather Roundup
Issued by NWS

Home | Current Version | Previous Version | Graphics & Text | Print | Product List | Glossary On
Versions: 1 2 3 4 5 6 7 8 9 10 11 12 13 14 15 16 17 18 19 20 21 22 23 24 25 26 27 28 29 30 31 32 33 34 35 36 37 38 39 40 41 42 43 44 45 46 47 48 49 50
000
ASUS45 KBOU 181810
RWRCO

WEATHER ROUNDUP FOR COLORADO
NATIONAL WEATHER SERVICE DENVER/BOULDER CO
1100 AM MST MON DEC 18 2017

NOTE: "FAIR" INDICATES FEW OR NO CLOUDS BELOW 12000 FEET WITH NO
SIGNIFICANT WEATHER AND/OR OBSTRUCTIONS TO VISIBILITY.

COZ001>005-013-030-031-181900-
...NORTHWEST COLORADO...

CITY           SKY/WX    TMP DP  RH WIND       PRES   REMARKS
CRAIG          CLOUDY    29  20  69 W5        30.21S WCI  24
HAYDEN         PTSUNNY   32  20  61 SE6       30.22S WCI  26
MEEKER         FAIR      28  17  63 CALM      30.22S
RABBIT EARS PA CLOUDY   N/A N/A N/A W9G18     30.17F HAZE
STEAMBOAT SPGS CLOUDY    26  19  75 CALM      30.21S
WALDEN         FAIR      30  19  64 S17       30.16S WCI  18
$$

COZ006>008-011-181900-
...WEST CENTRAL VALLEYS...

CITY           SKY/WX    TMP DP  RH WIND       PRES   REMARKS
GRAND JUNCTION FAIR      32  14  47 SW3       30.26S
MONTROSE       FAIR      33   9  36 NW3       30.26S
EAGLE          FAIR      20  11  68 CALM      30.29F
RIFLE          FAIR      28  13  53 CALM      30.26F
DELTA          FAIR      35   7  31 CALM      30.26S
NUCLA          FAIR      30   3  31 CALM      30.28S
$$

COZ017>023-064>068-181900-
...SOUTHWEST COLORADO...

CITY           SKY/WX    TMP DP  RH WIND       PRES   REMARKS
DURANGO        FAIR      37   8  30 CALM      30.20S
CORTEZ         FAIR      37   6  27 CALM      30.22F
PAGOSA SPRINGS FAIR      38   3  22 CALM      30.21S
TELLURIDE      FAIR      37  -4  17 CALM      30.22S
WOLF CREEK PAS FAIR      28  -2  26 SW6       30.28S WCI  22
$$

COZ009-010-012-014-032>034-037-058>063-181900-
...CENTRAL COLORADO...

CITY           SKY/WX    TMP DP  RH WIND       PRES   REMARKS
ASPEN          FAIR      31  10  41 N10       30.19S WCI  22
BUENA VISTA    FAIR      36   5  27 E5        30.13F
COPPER MTN     NOT AVBL
BERTHOUD PASS  FAIR      14   1  57 NW29G37   30.15F WCI  -7
COTTONWOOD PAS FAIR      39   5  24 SE9       30.14F
GUNNISON       FAIR      22   6  50 CALM      30.26F
KREMMLING      CLOUDY    21  14  73 CALM      30.27F
LEADVILLE      FAIR      34   9  35 NW8       30.16S WCI  27
MONARCH PASS   FAIR      21   1  42 SW15G21   30.30S WCI   8
SALIDA         FAIR      44   4  19 CALM      30.19F
SUNLIGHT       FAIR      25  18  74 CALM      30.26S
WILKERSON PASS FAIR      32   7  34 NW9       30.17S WCI  24
$$

COZ069>075-181900-
...SAN LUIS VALLEY/SANGRE DE CRISTO MOUNTAINS...

CITY           SKY/WX    TMP DP  RH WIND       PRES   REMARKS
ALAMOSA        FAIR      32  10  40 S3        30.20F
DEL NORTE      FAIR      33   7  33 SE3       30.21S
LA VETA PASS   FAIR      30   3  31 SW30G44     N/A  WCI  15
SAGUACHE       FAIR      34   9  35 S6        30.21S WCI  29
$$

COZ035-036-038>040-181900-
...NORTHERN COLORADO FRONT RANGE...

CITY           SKY/WX    TMP DP  RH WIND       PRES   REMARKS
DENVER INTL AP PTSUNNY   53  10  18 W6        29.95S
DMNS CITY PARK NOT AVBL
AURORA         PTSUNNY   53  11  19 SW5       29.96F
FRONT RANGE AP NOT AVBL
ERIE MUNI ARPT FAIR      37  29  72 CALM      30.01F
BOULDER MUN AP FAIR      43  30  61 N3        29.96S
CENTENNIAL     FAIR      52  12  20 S5        29.96F
BROOMFIELD     PTSUNNY   48  21  34 VRB3      29.97S
FORT COLLINS   FAIR      38  29  70 CALM      29.97F
LONGMONT       FAIR      42  29  61 CALM      29.97F
$$

COZ041-046-047-076>085-087-088-181900-
...PIKES PEAK/PALMER DIVIDE AND SOUTHERN FOOTHILLS...

CITY           SKY/WX    TMP DP  RH WIND       PRES   REMARKS
COLO. SPRINGS  FAIR      47   8  20 E5        30.01S
A. F. ACADEMY  FAIR      48   5  17 S5        30.00S
SCHRIEVER AFB  FAIR      46   6  19 SE3       30.01S
CHEYENNE MTN   FAIR      44   8  23 CALM      29.96S
ELLICOTT         N/A    N/A N/A N/A S5        30.00R
FALCON         FAIR      48   3  15 SE5       30.02F
FORT CARSON    FAIR      48  10  21 CALM      29.99F
LIMON          FAIR      50  10  20 S13       29.99F
MONUMENT HILL  FAIR      50   5  16 SW8       30.01F
CANON CITY     FAIR      54  10  17 W15G21    30.00S
WALSENBURG     FAIR      55   5  13 W21G28    30.02F
TRINIDAD       FAIR      52  11  19 VRB6      30.03F
$$

COZ042>045-048>051-090-091-181900-
...NORTHEAST COLORADO...

CITY           SKY/WX    TMP DP  RH WIND       PRES   REMARKS
GREELEY ARPT   FAIR      32  24  72 CALM      29.99F
AKRON          FAIR      45  24  43 SW8       29.96F
BURLINGTON     FAIR      49  29  46 SW13      29.98F
WRAY           FAIR      54  23  30 SW9G16    29.97F
YUMA           FAIR      46  25  42 SW9       29.96F
STERLING       FAIR      37  28  70 SW12      29.95F
HOLYOKE        FAIR      54  28  37 SW15G23   29.95F
FORT MORGAN    FAIR      37  27  67 SW7       29.99S
$$

COZ086-089-092>099-181900-
...SOUTHEAST COLORADO...

CITY           SKY/WX    TMP DP  RH WIND       PRES   REMARKS
PUEBLO         FAIR      45  18  34 CALM      29.99F
LA JUNTA       FAIR      38  23  55 S5        30.01F
LAMAR          FAIR      39  22  50 W10       30.02F
SPRINGFIELD      N/A     55  13  18 SW8       30.00F
$$



USA.gov is the U.S. government's official web portal to all federal, state and local government web resources and services.